{"data":{"norad_id":50201,"intl_designator":"2021-125AX","name":"STARLINK-3255","alt_names":[],"object_type":"PAYLOAD","status":"ACTIVE","operator":null,"country":"US","launch_date":"2021-12-18","launch_site_code":"AFWTR","launch_vehicle":null,"mission":null,"orbit_class":"UNKNOWN","rcs_meters":null,"size_class":null,"mass_kg":null,"dimensions":null,"purposes":["comms"],"wikipedia_slug":null,"has_3d_model":false,"image_url":null,"decayed_at":null,"tle_current":{"epoch":"2026-06-03T03:40:49.137600Z","epoch_age_seconds":9492873,"freshness":"OLD","line1":"1 50201U 21125AX  26154.15334650  .08223432  12410-4  40093-3 0  9999","line2":"2 50201  53.1708  65.0042 0005886 260.5089  99.5295 16.42737736251742","mean_motion":16.42737736,"eccentricity":0.0005886,"inclination_deg":53.1708,"raan_deg":65.0042,"arg_perigee_deg":260.5089,"mean_anomaly_deg":99.5295,"bstar":0.00040093,"rev_number":25174,"period_min":87.658545149534,"perigee_km":154.68238473422,"apogee_km":162.37734896988,"semimajor_km":6536.6668668521,"source":"CELESTRAK","updated_at":"2026-06-03T09:00:58.168032Z"}}}